Retour au catalogue

CZ-8 R/B

ActifCommunicationsPO
NORAD 68654·PAYLOAD·🇨🇳 China

Lancé Apr 7, 2026 depuis Wenchang Space Launch Site

Loading…

Prochains Passages (prochaines 24 heures)

TLE

FraisSource: Space-Track

Époque: Sep 14, 2026, 13:32 UTC

1 68654U 26075U   26257.56403574  .00000108  00000-0  28893-4 0  9998
2 68654  88.9862 309.7438 0069169 305.1210  54.3521 14.40093927 23014

Suivez CZ-8 R/B en temps réel avec AllMySat

Download on the App Store